When you browse on this site, cookies collect data to enhance your experience and personalize the content and advertising you see.
Visit our Privacy Policy to learn more. By continuing to use the site, you agree to this use of cookies and data.
  • En España
  • Lista de países
  • Para 7 días
  • Temperatura del agua
  • Mapa Satelital
  • El tiempo en el mapa
  • Informadores
  • user-avatar
    Iniciar sesión

    Tiempo cada hora Nagpur

    Hoy, 20 Julio, Sábado

    Tiempo Temperatura Precipitaciones Viento Presión Humedad
    00:00 +29°C° 0.1 mm 3 mps 725 mmHg 79%
    01:00 +29°C° 0.1 mm 2 mps 725 mmHg 79%
    02:00 +29°C° 0.1 mm 2 mps 725 mmHg 78%
    03:00 +29°C° 0 mm 2 mps 725 mmHg 79%
    04:00 +29°C° 0 mm 1 mps 724 mmHg 79%
    05:00 +29°C° 0 mm 2 mps 725 mmHg 80%
    06:00 +30°C° 0.3 mm 2 mps 725 mmHg 75%
    07:00 +31°C° 0.3 mm 2 mps 725 mmHg 71%
    08:00 +31°C° 0.3 mm 2 mps 726 mmHg 67%
    09:00 +34°C° 0.6 mm 2 mps 726 mmHg 62%
    10:00 +35°C° 0.6 mm 2 mps 726 mmHg 57%
    11:00 +36°C° 0.6 mm 2 mps 725 mmHg 52%
    12:00 +37°C° 0.2 mm 2 mps 725 mmHg 50%
    13:00 +37°C° 0.2 mm 2 mps 724 mmHg 49%
    14:00 +38°C° 0.2 mm 2 mps 724 mmHg 48%
    15:00 +37°C° 0.1 mm 2 mps 723 mmHg 49%
    16:00 +37°C° 0.1 mm 2 mps 723 mmHg 51%
    17:00 +37°C° 0.1 mm 2 mps 723 mmHg 53%
    18:00 +36°C° 0.1 mm 2 mps 723 mmHg 57%
    19:00 +35°C° 0.1 mm 2 mps 723 mmHg 61%
    20:00 +34°C° 0.1 mm 2 mps 724 mmHg 64%
    21:00 +32°C° 0.5 mm 2 mps 724 mmHg 67%
    22:00 +32°C° 0.5 mm 1 mps 724 mmHg 69%
    23:00 +32°C° 0.5 mm 1 mps 724 mmHg 71%

    Mañana, 21 Julio, Domingo

    Tiempo Temperatura Precipitaciones Viento Presión Humedad
    00:00 +31°C° 2.7 mm 2 mps 724 mmHg 73%
    01:00 +31°C° 2.7 mm 2 mps 724 mmHg 76%
    02:00 +30°C° 2.7 mm 2 mps 723 mmHg 78%
    03:00 +30°C° 1.3 mm 2 mps 724 mmHg 80%
    04:00 +29°C° 1.3 mm 1 mps 724 mmHg 82%
    05:00 +29°C° 1.3 mm 1 mps 724 mmHg 84%
    06:00 +30°C° 0.1 mm 1 mps 724 mmHg 80%
    07:00 +31°C° 0.1 mm 1 mps 725 mmHg 76%
    08:00 +31°C° 0.1 mm 1 mps 725 mmHg 71%
    09:00 +34°C° 0 mm 2 mps 725 mmHg 67%
    10:00 +35°C° 0 mm 2 mps 725 mmHg 62%
    11:00 +36°C° 0 mm 3 mps 725 mmHg 57%
    12:00 +36°C° 0 mm 3 mps 725 mmHg 56%
    13:00 +37°C° 0 mm 3 mps 724 mmHg 54%
    14:00 +37°C° 0 mm 3 mps 723 mmHg 53%
    15:00 +37°C° 0 mm 2 mps 723 mmHg 54%
    16:00 +37°C° 0 mm 2 mps 723 mmHg 55%
    17:00 +36°C° 0 mm 2 mps 723 mmHg 55%
    18:00 +36°C° 0 mm 2 mps 723 mmHg 59%
    19:00 +35°C° 0 mm 2 mps 724 mmHg 62%
    20:00 +34°C° 0 mm 2 mps 724 mmHg 65%
    21:00 +32°C° 0 mm 2 mps 725 mmHg 68%
    22:00 +33°C° 0 mm 3 mps 725 mmHg 71%
    23:00 +31°C° 0 mm 3 mps 725 mmHg 74%

    Pasado mañana, 22 Julio, Lunes

    Tiempo Temperatura Precipitaciones Viento Presión Humedad
    00:00 +31°C° 0.5 mm 3 mps 724 mmHg 75%
    01:00 +30°C° 0.5 mm 3 mps 724 mmHg 76%
    02:00 +30°C° 0.5 mm 3 mps 724 mmHg 77%
    03:00 +30°C° 0.1 mm 3 mps 724 mmHg 78%
    04:00 +30°C° 0.1 mm 2 mps 723 mmHg 80%
    05:00 +29°C° 0.1 mm 2 mps 723 mmHg 82%
    06:00 +30°C° 0 mm 2 mps 724 mmHg 76%
    07:00 +33°C° 0 mm 3 mps 724 mmHg 71%
    08:00 +34°C° 0 mm 3 mps 725 mmHg 66%
    09:00 +35°C° 0.1 mm 3 mps 725 mmHg 62%
    10:00 +36°C° 0.1 mm 3 mps 725 mmHg 57%
    11:00 +37°C° 0.1 mm 3 mps 725 mmHg 53%
    12:00 +37°C° 0 mm 2 mps 724 mmHg 52%
    13:00 +37°C° 0 mm 2 mps 724 mmHg 51%
    14:00 +38°C° 0 mm 2 mps 723 mmHg 50%
    15:00 +37°C° 0 mm 2 mps 723 mmHg 51%
    16:00 +37°C° 0 mm 2 mps 723 mmHg 52%
    17:00 +36°C° 0 mm 1 mps 722 mmHg 53%
    18:00 +36°C° 0 mm 2 mps 723 mmHg 56%
    19:00 +35°C° 0 mm 2 mps 723 mmHg 59%
    20:00 +35°C° 0 mm 3 mps 724 mmHg 62%
    21:00 +34°C° 0 mm 3 mps 724 mmHg 65%
    22:00 +33°C° 0 mm 3 mps 724 mmHg 68%
    23:00 +32°C° 0 mm 2 mps 724 mmHg 71%

    23 Julio, Martes

    Tiempo Temperatura Precipitaciones Viento Presión Humedad
    00:00 +31°C° 0 mm 2 mps 724 mmHg 73%
    01:00 +31°C° 0 mm 2 mps 723 mmHg 75%
    02:00 +30°C° 0 mm 2 mps 723 mmHg 76%
    03:00 +30°C° 0 mm 2 mps 723 mmHg 78%
    04:00 +30°C° 0 mm 2 mps 723 mmHg 79%
    05:00 +30°C° 0 mm 2 mps 723 mmHg 81%
    06:00 +31°C° 0 mm 2 mps 724 mmHg 76%
    07:00 +32°C° 0 mm 2 mps 724 mmHg 70%
    08:00 +34°C° 0 mm 2 mps 725 mmHg 65%
    09:00 +35°C° 0 mm 2 mps 724 mmHg 60%
    10:00 +36°C° 0 mm 2 mps 724 mmHg 55%
    11:00 +37°C° 0 mm 2 mps 724 mmHg 50%
    12:00 +37°C° 0 mm 2 mps 724 mmHg 50%
    13:00 +37°C° 0 mm 2 mps 723 mmHg 49%
    14:00 +37°C° 0 mm 2 mps 723 mmHg 49%
    15:00 +37°C° 0.1 mm 2 mps 722 mmHg 50%
    16:00 +37°C° 0.1 mm 2 mps 722 mmHg 52%
    17:00 +37°C° 0.1 mm 2 mps 722 mmHg 53%
    18:00 +35°C° 0 mm 1 mps 723 mmHg 56%
    19:00 +34°C° 0 mm 1 mps 723 mmHg 58%
    20:00 +34°C° 0 mm 1 mps 723 mmHg 61%
    21:00 +33°C° 0.3 mm 1 mps 724 mmHg 63%
    22:00 +33°C° 0.3 mm 1 mps 724 mmHg 65%
    23:00 +32°C° 0.3 mm 1 mps 724 mmHg 68%

    24 Julio, Miércoles

    Tiempo Temperatura Precipitaciones Viento Presión Humedad
    00:00 +32°C° 0.2 mm 2 mps 723 mmHg 70%
    01:00 +31°C° 0.2 mm 2 mps 723 mmHg 72%
    02:00 +31°C° 0.2 mm 2 mps 723 mmHg 74%
    03:00 +30°C° 1 mm 2 mps 723 mmHg 75%
    04:00 +30°C° 1 mm 3 mps 723 mmHg 76%
    05:00 +30°C° 1 mm 3 mps 723 mmHg 76%
    06:00 +31°C° 0.8 mm 3 mps 723 mmHg 73%
    07:00 +33°C° 0.8 mm 4 mps 724 mmHg 70%
    08:00 +33°C° 0.8 mm 4 mps 724 mmHg 67%
    09:00 +34°C° 0.7 mm 4 mps 724 mmHg 62%
    10:00 +35°C° 0.7 mm 3 mps 724 mmHg 57%
    11:00 +37°C° 0.7 mm 3 mps 724 mmHg 53%
    12:00 +37°C° 0.1 mm 2 mps 723 mmHg 51%
    13:00 +37°C° 0.1 mm 2 mps 723 mmHg 49%
    14:00 +38°C° 0.1 mm 2 mps 722 mmHg 47%
    15:00 +38°C° 0 mm 2 mps 722 mmHg 49%
    16:00 +36°C° 0 mm 1 mps 722 mmHg 50%
    17:00 +36°C° 0 mm 1 mps 722 mmHg 52%
    18:00 +35°C° 0.1 mm 1 mps 723 mmHg 56%
    19:00 +34°C° 0.1 mm 1 mps 723 mmHg 59%
    20:00 +33°C° 0.1 mm 1 mps 723 mmHg 63%
    21:00 +34°C° 0.1 mm 2 mps 724 mmHg 66%
    22:00 +32°C° 0.1 mm 2 mps 724 mmHg 68%
    23:00 +31°C° 0.1 mm 3 mps 724 mmHg 71%

    25 Julio, Jueves

    Tiempo Temperatura Precipitaciones Viento Presión Humedad
    00:00 +31°C° 0.1 mm 3 mps 724 mmHg 73%
    01:00 +30°C° 0.1 mm 3 mps 723 mmHg 74%
    02:00 +30°C° 0.1 mm 3 mps 723 mmHg 76%
    03:00 +30°C° 0.1 mm 3 mps 723 mmHg 77%
    04:00 +29°C° 0.1 mm 3 mps 723 mmHg 78%
    05:00 +29°C° 0.1 mm 3 mps 723 mmHg 79%
    06:00 +30°C° 0.2 mm 2 mps 724 mmHg 75%
    07:00 +31°C° 0.2 mm 2 mps 724 mmHg 72%
    08:00 +32°C° 0.2 mm 2 mps 725 mmHg 69%
    09:00 +34°C° 1.3 mm 2 mps 725 mmHg 64%
    10:00 +34°C° 1.3 mm 1 mps 724 mmHg 60%
    11:00 +35°C° 1.3 mm 1 mps 724 mmHg 56%
    12:00 +35°C° 0.5 mm 1 mps 724 mmHg 55%
    13:00 +35°C° 0.5 mm 1 mps 723 mmHg 54%
    14:00 +35°C° 0.5 mm 1 mps 723 mmHg 54%
    15:00 +35°C° 0.5 mm 1 mps 722 mmHg 56%
    16:00 +35°C° 0.5 mm 1 mps 722 mmHg 58%
    17:00 +34°C° 0.5 mm 1 mps 722 mmHg 60%
    18:00 +34°C° 1.6 mm 2 mps 722 mmHg 66%
    19:00 +32°C° 1.6 mm 2 mps 723 mmHg 72%
    20:00 +31°C° 1.6 mm 2 mps 723 mmHg 78%
    21:00 +30°C° 3 mm 2 mps 723 mmHg 80%
    22:00 +30°C° 3 mm 1 mps 723 mmHg 82%
    23:00 +30°C° 3 mm 1 mps 723 mmHg 84%
    Mostrar más